This demonstration page uses our WeatherBlox Daily Observations layout. Learn more.

Left ArrowRight Arrow

41.55636, -103.73856

Hourly Observations for January 6, 2021

Temp ( °F °C ) Dew Point ( °F °C ) Humidity (%) Winds ( mph kmh ) Pressure ( in mb ) Visibility ( mi km ) Precip ( " mm )
12:58 am 00:58 Clear 28 -2.5 20 -6.5 74 74 NW 17 28 30.2 1023 10 16.0934 0 0
1:58 am 01:58 Clear 23 -4.8 19 -7.4 82 82 NW 10 17 30.26 1025 10 16.0934 0 0
2:58 am 02:58 Clear 24 -4.7 18 -7.8 79 79 WNW 14 22 30.28 1025 10 16.0934 0 0
3:58 am 03:58 Clear 23 -5.1 18 -7.7 82 82 NW 16 26 30.28 1025 10 16.0934 0 0
4:58 am 04:58 Clear 22 -5.3 17 -8.3 80 80 WNW 14 22 30.29 1026 10 16.0934 0 0
5:58 am 05:58 Clear 21 -6 16 -8.8 81 81 NW 15 24 30.3 1026 10 16.0934 0 0
6:58 am 06:58 Clear 19 -7.1 15 -9.7 82 82 WNW 8 13 30.34 1027 10 16.0934 0 0
7:58 am 07:58 Sunny 19 -7.4 14 -9.9 83 83 WSW 5 7 30.34 1027 10 16.0934 0 0
8:58 am 08:58 Sunny 27 -2.8 16 -8.7 64 64 WNW 12 19 30.32 1027 10 16.0934 0 0
9:58 am 09:58 Sunny 30 -0.9 18 -7.7 60 60 NW 15 24 30.31 1026 10 16.0934 0 0
10:58 am 10:58 Sunny 35 1.5 17 -8.5 48 48 NW 20 31 30.28 1025 10 16.0934 0 0
11:58 am 11:58 Sunny 37 3 15 -9.7 39 39 NW 17 28 30.25 1024 10 16.0934 0 0
12:58 pm 12:58 Sunny 40 4.2 14 -10 35 35 NW 17 28 30.22 1023 10 16.0934 0 0
1:58 pm 13:58 Sunny 41 4.8 10 -12 29 29 NW 18 30 30.22 1023 10 16.0934 0 0
2:56 pm 14:56 Sunny 41 4.9 10 -12.4 28 28 NNW 14 22 30.23 1024 10 16.0934 0 0
3:56 pm 15:56 Sunny 38 3.6 10 -12.1 31 31 NNW 9 15 30.24 1024 10 16.0934 0 0
4:56 pm 16:56 Clear 33 0.8 9 -12.7 36 36 NNW 5 7 30.26 1025 10 16.0934 0 0
5:56 pm 17:56 Clear 29 -1.6 10 -12.1 45 45 WSW 3 6 30.3 1026 10 16.0934 0 0
6:56 pm 18:56 Clear 25 -4 15 -9.7 65 65 WSW 7 11 30.33 1027 10 16.0934 0 0
7:56 pm 19:56 Clear 24 -4.3 15 -9.2 69 69 WSW 6 9 30.32 1027 10 16.0934 0 0
8:56 pm 20:56 Clear 24 -4.4 15 -9.7 67 67 WSW 7 11 30.29 1026 10 16.0934 0 0
9:56 pm 21:56 Clear 26 -3.1 15 -9.7 61 61 SW 5 7 30.28 1026 10 16.0934 0 0
10:58 pm 22:58 Clear 23 -4.8 13 -10.6 64 64 SW 7 11 30.26 1025 10 16.0934 0 0
11:58 pm 23:58 Clear 24 -4.2 13 -10.4 62 62 SW 6 9 30.23 1024 10 16.0934 0 0

Powered by AerisWeather